Location: Gwatt
(46.7204°N, 7.6223°E)
Time: 01:19:28
(UTC+00:00)

Transit 2A - Pass Details

Date: 28 January 2021
Orbit: 601 x 958 km, 66.7° (Epoch: 07 March)

Event Time Altitude Azimuth Distance (km) Brightness Sun altitude
Rises 10:35:51 0° 328° (NNW) 3,023 8.5 23.5°
Reaches altitude 10° 10:38:15 10° 331° (NNW) 2,061 7.8 23.6°
Maximum altitude 10:42:49 63° 53° (NE) 692 6.1 23.8°
Drops below altitude 10° 10:47:08 10° 135° (SE) 1,946 9.3 24.0°
Sets 10:49:21 0° 139° (SE) 2,838 10.0 24.1°
